[[{"header":{"parameterUnit":"m.s-1","parameterCategory":1,"la1":30.2991,"la2":30.254,"lo1":-89.0895,"lo2":-89.0444,"dy":0.0017,"dx":0.0017,"nx":28,"ny":28,"refTime":"2024-04-11T21:00:00:Z","depth":0,"parameterNumber":2,"parameterNumberName":"U-component_of_WINDS"},"data":[0,0,0,0,0,0,0,0,0,0,0,0,0,0,0,0,0,0,0,0,0,0,0,0,0,0,0,0,0,0,0,0,0,0,0,0,0,0,0,0,0,0,0,0,0,0,0,0,0,0,0,0,0,0,0,0,0,0,-2.1202,-2.1202,0,-2.1192,-2.1192,-2.1192,-2.1111,-2.1109,-2.1107,-2.1105,-2.1098,-2.11,-2.1101,0,0,0,0,0,0,0,0,0,0,0,0,0,-2.1153,-2.1154,-2.1202,-2.1202,-2.1202,-2.1192,-2.1192,-2.1192,-2.1112,-2.1109,-2.1107,-2.1104,-2.1097,-2.1099,-2.1101,0,0,0,0,0,0,0,0,0,0,0,0,0,-2.1162,-2.1154,-2.1202,-2.116,-2.1156,-2.1192,-2.1192,-2.1192,-2.1112,-2.1109,-2.1106,-2.1103,-2.1097,-2.1099,-2.1102,-2.1177,0,0,-2.1109,-2.111,0,0,0,0,0,0,0,0,-2.1161,-2.1164,-2.1166,-2.1163,-2.1159,-2.115,-2.1172,-2.1187,-2.1113,-2.1129,-2.1105,-2.1102,-2.1118,-2.1118,-2.1123,-2.1177,-2.1177,-2.111,-2.1111,-2.1112,-2.1113,0,0,0,0,0,0,0,-2.1161,-2.1164,-2.1198,-2.1167,-2.1162,-2.1143,-2.1141,-2.1175,-2.1141,-2.1127,-2.1122,-2.1121,-2.1115,-2.1121,-2.1123,-2.1177,-2.111,-2.1112,-2.1113,-2.1114,-2.1294,-2.1297,0,0,0,0,0,0,-2.1166,-2.1164,-2.1198,-2.1198,-2.1153,-2.1146,-2.1144,-2.1156,-2.114,-2.1135,-2.1124,-2.1118,-2.1118,-2.112,-2.1122,-2.1211,-2.1112,-2.1115,-2.1116,-2.129,-2.1294,-2.1298,0,0,0,0,0,0,-2.1165,-2.117,-2.1199,-2.1179,-2.1181,-2.115,-2.1164,-2.1157,-2.1163,-2.1137,-2.1131,-2.1136,-2.1116,-2.1118,-2.1164,-2.1209,-2.1116,-2.1118,-2.1287,-2.1292,-2.1296,-2.1388,0,0,0,0,0,0,-2.1164,-2.117,-2.1198,-2.118,-2.1183,-2.1241,-2.1167,-2.1159,-2.1167,-2.1159,-2.1147,-2.1142,-2.1114,-2.1161,-2.1167,-2.1211,-2.112,-2.1283,-2.1289,-2.1295,-2.1381,-2.1396,-2.1408,0,0,0,0,0,-2.1162,-2.1224,-2.1199,-2.1204,-2.1217,-2.1243,-2.1245,-2.121,-2.1171,-2.1199,-2.1183,-2.1143,-2.1203,-2.1167,-2.1172,-2.1218,-2.128,-2.1287,-2.1294,-2.1375,-2.1393,-2.1408,0,0,0,0,0,0,-2.1248,-2.1221,-2.1193,-2.1251,-2.125,-2.123,-2.1264,-2.123,-2.1241,-2.1233,-2.119,-2.1188,-2.1241,-2.1234,-2.1193,-2.1291,-2.1234,-2.1243,-2.1294,-2.1311,-2.1324,-2.1325,-2.1122,0,0,0,0,0,-2.1273,-2.1296,-2.1272,-2.1325,-2.1326,-2.1296,-2.1306,-2.128,-2.1277,-2.1277,-2.1263,-2.1263,-2.1282,-2.1296,-2.1312,-2.138,-2.1377,-2.1414,-2.1427,-2.1439,-2.1447,-2.1484,-2.1501,-2.1322,-2.1322,-2.1322,0,0,-2.1326,-2.1314,-2.1332,-2.1342,-2.1338,-2.1365,-2.1296,-2.1326,-2.1345,-2.1281,-2.1324,-2.1315,-2.1312,-2.1369,-2.1394,-2.1365,-2.1496,-2.1448,-2.1457,-2.146,-2.1493,-2.151,-2.1525,-2.1327,-2.1326,-2.1325,0,0,-2.1436,-2.1429,-2.1473,-2.1471,-2.1466,-2.1445,-2.1456,-2.1441,-2.1433,-2.1475,-2.1428,-2.145,-2.1484,-2.1484,-2.1489,-2.16,-2.1564,-2.1607,-2.1678,-2.1714,-2.1728,-2.1741,-2.1782,-2.1797,-2.1615,-2.1615,-2.1615,0,-2.1503,-2.1539,-2.1501,-2.1534,-2.1541,-2.1484,-2.1529,-2.1529,-2.153,-2.1536,-2.1503,-2.1545,-2.1539,-2.1597,-2.1624,-2.1629,-2.1641,-2.1608,-2.1729,-2.1741,-2.1752,-2.1791,-2.1806,-2.1621,-2.162,-2.1619,-2.1619,0,-2.1622,-2.1649,-2.1685,-2.1688,-2.1698,-2.1738,-2.1706,-2.1721,-2.1694,-2.1678,-2.1722,-2.1713,-2.1727,-2.1738,-2.1712,-2.1793,-2.1775,-2.1737,-2.1679,-2.1775,-2.1811,-2.1825,-2.1628,-2.1626,-2.1625,-2.1623,0,0,-2.1786,-2.1767,-2.1781,-2.1782,-2.1772,-2.1793,-2.183,-2.1843,-2.1858,-2.1861,-2.1892,-2.1922,-2.1887,-2.1892,-2.1866,-2.1897,-2.1988,-2.1855,-2.1854,-2.1881,-2.2078,-2.2108,-2.2126,-2.1964,-2.1966,-2.1968,-2.2079,0,-2.1893,-2.1955,-2.1921,-2.1989,-2.2013,-2.196,-2.1993,-2.1991,-2.1977,-2.1997,-2.1981,-2.2003,-2.1954,-2.1957,-2.1986,-2.1971,-2.2027,-2.1962,-2.1994,-2.1995,-2.1997,-2.2144,-2.2176,-2.2281,-2.2093,-2.2095,-2.2097,0,-2.2025,-2.2034,-2.2104,-2.2091,-2.21,-2.213,-2.214,-2.2159,-2.2157,-2.2145,-2.2151,-2.2118,-2.2155,-2.2097,-2.2148,-2.2105,-2.2116,-2.2111,-2.2114,-2.2116,-2.2053,-2.2152,-2.2313,-2.233,-2.2118,-2.2116,-2.2115,0,-2.214,-2.2168,-2.2214,-2.2216,-2.2202,-2.2225,-2.2221,-2.2215,-2.2226,-2.2235,-2.2241,-2.2255,-2.2263,-2.2275,-2.2246,-2.2206,-2.2302,-2.2241,-2.2294,-2.2295,-2.2317,-2.2316,-2.2483,-2.2322,-2.2322,-2.2322,-2.2321,0,-2.2263,-2.2308,-2.2265,-2.2294,-2.2343,-2.2305,-2.2355,-2.2345,-2.2341,-2.2367,-2.2321,-2.2347,-2.2307,-2.2329,-2.2307,-2.2354,-2.2358,-2.235,-2.2343,-2.2354,-2.2356,-2.2362,-2.2354,-2.2326,-2.2325,-2.2324,-2.2323,0,-2.2399,-2.2372,-2.2419,-2.2402,-2.2399,-2.2436,-2.2422,-2.2448,-2.2431,-2.2465,-2.247,-2.2444,-2.2468,-2.244,-2.2461,-2.2447,-2.2511,-2.2493,-2.2511,-2.2507,-2.2561,-2.2557,-2.2739,-2.2761,-2.2585,-2.2587,-2.2588,0,-2.248,-2.2514,-2.2501,-2.2515,-2.2513,-2.2536,-2.2546,-2.251,-2.2523,-2.2524,-2.2551,-2.2571,-2.2585,-2.2626,-2.2609,-2.2626,-2.2609,-2.2672,-2.2611,-2.2622,-2.2612,-2.2611,-2.2615,-2.2684,-2.2686,-2.2688,-2.269,0,-2.2627,-2.2613,-2.2629,-2.2642,-2.2656,-2.2664,-2.2669,-2.2683,-2.2646,-2.2663,-2.2687,-2.2698,-2.272,-2.2741,-2.2753,-2.2749,-2.2715,-2.2709,-2.2722,-2.2734,-2.2744,-2.2741,-2.2546,-2.2705,-2.2703,-2.2702,-2.2701,-2.2701,-2.2739,-2.2767,-2.2763,-2.2783,-2.2783,-2.2789,-2.2813,-2.2799,-2.2818,-2.2833,-2.2811,-2.2841,-2.2839,-2.2852,-2.2852,-2.2876,-2.2849,-2.2868,-2.2873,-2.2879,-2.2888,-2.2739,-2.2878,-2.2877,-2.2877,-2.2877,-2.2876,0,-2.2885,-2.288,-2.2899,-2.2908,-2.2924,-2.2889,-2.2893,-2.2909,-2.2936,-2.2937,-2.2952,-2.2981,-2.3001,-2.2986,-2.3003,-2.3026,-2.301,-2.3032,-2.303,-2.303,-2.291,-2.2897,-2.3044,-2.3044,-2.3044,-2.3044,-2.3044,-2.3044,-2.2963,-2.3009,-2.2994,-2.304,-2.3034,-2.3063,-2.3069,-2.3075,-2.3075,-2.3109,-2.3126,-2.3115,-2.3111,-2.3127,-2.3145,-2.314,-2.315,-2.3177,-2.3167,-2.3055,-2.3039,-2.3023,-2.3011,-2.3179,-2.3179,-2.3286,-2.3287,-2.3287]},{"header":{"parameterUnit":"m.s-1","parameterCategory":1,"la1":30.2991,"la2":30.254,"lo1":-89.0895,"lo2":-89.0444,"dy":0.0017,"dx":0.0017,"nx":28,"ny":28,"refTime":"2024-04-11T21:00:00:Z","depth":0,"parameterNumber":3,"parameterNumberName":"V-component_of_WINDS"},"data":[0,0,0,0,0,0,0,0,0,0,0,0,0,0,0,0,0,0,0,0,0,0,0,0,0,0,0,0,0,0,0,0,0,0,0,0,0,0,0,0,0,0,0,0,0,0,0,0,0,0,0,0,0,0,0,0,0,0,-0.6525,-0.6525,0,-0.6552,-0.6552,-0.6553,-0.6545,-0.6544,-0.6543,-0.6543,-0.6571,-0.6573,-0.6574,0,0,0,0,0,0,0,0,0,0,0,0,0,-0.6466,-0.6467,-0.6525,-0.6525,-0.6526,-0.6552,-0.6552,-0.6553,-0.6545,-0.6544,-0.6543,-0.6543,-0.6571,-0.6573,-0.6574,0,0,0,0,0,0,0,0,0,0,0,0,0,-0.6492,-0.6468,-0.6525,-0.6525,-0.6525,-0.6552,-0.6553,-0.6553,-0.6545,-0.6544,-0.6543,-0.6542,-0.6571,-0.6572,-0.6574,-0.6603,0,0,-0.658,-0.6581,0,0,0,0,0,0,0,0,-0.6491,-0.6495,-0.6524,-0.6525,-0.6525,-0.6544,-0.6542,-0.657,-0.6545,-0.6537,-0.6543,-0.6542,-0.6563,-0.6566,-0.6573,-0.6605,-0.6606,-0.658,-0.6582,-0.6582,-0.6583,0,0,0,0,0,0,0,-0.6489,-0.6493,-0.6536,-0.6525,-0.6525,-0.6523,-0.6526,-0.6547,-0.6555,-0.6538,-0.6537,-0.6541,-0.6563,-0.6571,-0.6573,-0.6606,-0.658,-0.6582,-0.6583,-0.6584,-0.6664,-0.6664,0,0,0,0,0,0,-0.6487,-0.6492,-0.6535,-0.6537,-0.6506,-0.6525,-0.6528,-0.6539,-0.6554,-0.6556,-0.6541,-0.654,-0.6568,-0.6571,-0.6574,-0.661,-0.6582,-0.6584,-0.6585,-0.6663,-0.6664,-0.6665,0,0,0,0,0,0,-0.6486,-0.6491,-0.6534,-0.6514,-0.6519,-0.6527,-0.6539,-0.654,-0.6548,-0.6557,-0.6558,-0.6548,-0.6567,-0.6571,-0.6596,-0.661,-0.6585,-0.6587,-0.6661,-0.6663,-0.6664,-0.668,0,0,0,0,0,0,-0.6484,-0.649,-0.6502,-0.6514,-0.652,-0.6555,-0.654,-0.6541,-0.6551,-0.655,-0.6563,-0.6565,-0.6567,-0.6593,-0.6598,-0.6613,-0.6588,-0.666,-0.6662,-0.6664,-0.6679,-0.6682,-0.6685,0,0,0,0,0,-0.6482,-0.6505,-0.6502,-0.6508,-0.6535,-0.6556,-0.656,-0.6561,-0.6552,-0.6563,-0.6569,-0.6565,-0.6608,-0.6596,-0.6601,-0.6617,-0.6659,-0.6662,-0.6664,-0.6677,-0.6681,-0.6685,0,0,0,0,0,0,-0.6495,-0.6507,-0.6504,-0.6532,-0.6543,-0.6555,-0.6569,-0.6566,-0.658,-0.6578,-0.658,-0.6583,-0.6608,-0.6615,-0.6601,-0.6645,-0.6632,-0.6636,-0.6641,-0.6645,-0.6648,-0.6647,-0.659,0,0,0,0,0,-0.65,-0.6517,-0.6527,-0.6551,-0.6556,-0.6562,-0.6571,-0.6571,-0.6583,-0.6588,-0.6596,-0.6607,-0.6624,-0.6634,-0.665,-0.6679,-0.6682,-0.6692,-0.6695,-0.6698,-0.6701,-0.6717,-0.6722,-0.6672,-0.6672,-0.6672,0,0,-0.6513,-0.6522,-0.6532,-0.6553,-0.6562,-0.6579,-0.6566,-0.6585,-0.6597,-0.6591,-0.6615,-0.6621,-0.6634,-0.6661,-0.6673,-0.6667,-0.6715,-0.6701,-0.6703,-0.6705,-0.672,-0.6725,-0.6729,-0.6673,-0.6673,-0.6673,0,0,-0.6545,-0.6553,-0.6574,-0.6583,-0.6596,-0.6599,-0.6604,-0.6616,-0.662,-0.6644,-0.6639,-0.6654,-0.6682,-0.6692,-0.67,-0.6734,-0.6731,-0.6739,-0.6757,-0.6773,-0.6777,-0.678,-0.6793,-0.6798,-0.6742,-0.6742,-0.6742,0,-0.656,-0.6585,-0.6585,-0.6604,-0.6614,-0.6608,-0.6629,-0.6638,-0.6655,-0.6662,-0.6654,-0.6689,-0.6697,-0.6726,-0.6735,-0.6742,-0.6748,-0.6739,-0.6776,-0.678,-0.6783,-0.6795,-0.68,-0.6743,-0.6743,-0.6743,-0.6743,0,-0.6602,-0.662,-0.6635,-0.6652,-0.6663,-0.6683,-0.6686,-0.6697,-0.6696,-0.67,-0.6724,-0.6734,-0.6751,-0.6758,-0.6757,-0.6787,-0.6783,-0.6776,-0.6763,-0.6789,-0.6801,-0.6805,-0.6745,-0.6744,-0.6744,-0.6744,0,0,-0.6645,-0.666,-0.6666,-0.6674,-0.6687,-0.6701,-0.672,-0.6737,-0.6747,-0.6758,-0.6775,-0.6798,-0.6791,-0.6801,-0.6801,-0.6815,-0.6842,-0.6806,-0.6806,-0.6813,-0.6876,-0.6883,-0.6888,-0.6839,-0.684,-0.684,-0.6876,0,-0.6679,-0.6713,-0.6713,-0.6745,-0.6762,-0.6755,-0.6772,-0.6783,-0.6787,-0.6801,-0.6805,-0.6822,-0.6811,-0.6817,-0.683,-0.6836,-0.6855,-0.6833,-0.6855,-0.6856,-0.6853,-0.6894,-0.6901,-0.6934,-0.688,-0.6881,-0.6881,0,-0.6723,-0.6736,-0.677,-0.678,-0.6787,-0.6803,-0.6818,-0.6831,-0.6843,-0.6844,-0.6855,-0.6852,-0.6872,-0.6857,-0.6885,-0.687,-0.6879,-0.6883,-0.6884,-0.6887,-0.6871,-0.6899,-0.6944,-0.6949,-0.6888,-0.6888,-0.6887,0,-0.6752,-0.6777,-0.6801,-0.6807,-0.682,-0.6831,-0.6837,-0.6847,-0.6857,-0.687,-0.6876,-0.6891,-0.69,-0.6912,-0.6914,-0.6903,-0.6941,-0.6927,-0.6944,-0.6944,-0.6954,-0.6954,-0.7002,-0.6957,-0.6957,-0.6957,-0.6957,0,-0.679,-0.6811,-0.6814,-0.6829,-0.6852,-0.6851,-0.6874,-0.6879,-0.6888,-0.6903,-0.6899,-0.6913,-0.6914,-0.6929,-0.693,-0.6953,-0.6957,-0.6959,-0.696,-0.6961,-0.696,-0.6967,-0.6966,-0.6959,-0.6958,-0.6958,-0.6958,0,-0.6827,-0.6829,-0.6855,-0.6864,-0.6867,-0.6884,-0.6892,-0.6906,-0.6909,-0.6929,-0.6933,-0.6938,-0.6955,-0.6958,-0.6978,-0.6979,-0.7007,-0.7004,-0.7003,-0.7003,-0.7021,-0.702,-0.7076,-0.7084,-0.7033,-0.7034,-0.7034,0,-0.6852,-0.6868,-0.6879,-0.6889,-0.6896,-0.6912,-0.6921,-0.6921,-0.6932,-0.6945,-0.6957,-0.6974,-0.6987,-0.7015,-0.7021,-0.7036,-0.7034,-0.7053,-0.7037,-0.7037,-0.7036,-0.7036,-0.7037,-0.7057,-0.7057,-0.7058,-0.7058,0,-0.6897,-0.6897,-0.6911,-0.6926,-0.6938,-0.6949,-0.696,-0.6969,-0.697,-0.6982,-0.6999,-0.701,-0.703,-0.7047,-0.7062,-0.7068,-0.7064,-0.7063,-0.7068,-0.707,-0.7069,-0.707,-0.7013,-0.7062,-0.7062,-0.7061,-0.7061,-0.7061,-0.6929,-0.6943,-0.6953,-0.6969,-0.6977,-0.6987,-0.7001,-0.7005,-0.702,-0.7036,-0.7035,-0.7054,-0.7064,-0.7084,-0.7091,-0.7106,-0.71,-0.7107,-0.7109,-0.7111,-0.7114,-0.7065,-0.7109,-0.7109,-0.7109,-0.7108,-0.7108,0,-0.6975,-0.698,-0.6995,-0.701,-0.7023,-0.7017,-0.7028,-0.7039,-0.7056,-0.7066,-0.7079,-0.7099,-0.7115,-0.7121,-0.7137,-0.7148,-0.7146,-0.7152,-0.7152,-0.7153,-0.7118,-0.7112,-0.7153,-0.7153,-0.7153,-0.7153,-0.7153,-0.7153,-0.7,-0.7023,-0.7024,-0.7051,-0.7057,-0.7076,-0.7083,-0.7092,-0.71,-0.7122,-0.7136,-0.7139,-0.7148,-0.7164,-0.7178,-0.7179,-0.7186,-0.7193,-0.7193,-0.716,-0.7156,-0.7152,-0.7147,-0.7194,-0.7194,-0.7228,-0.7228,-0.7229]}]]